Retour au catalogue

QIANFAN-95

ActifCommunicationsPO
NORAD 66037·PAYLOAD·🇨🇳 China

Lancé Oct 17, 2025 depuis Taiyuan Satellite Launch Center

Loading…

Prochains Passages (prochaines 24 heures)

TLE

FraisSource: Space-Track

Époque: Sep 14, 2026, 20:02 UTC

1 66037U 25233E   26257.83505768  .00000068  00000-0  87382-4 0  9997
2 66037  89.0052  33.5988 0001704  92.8127 267.3219 13.51021747 45588

Suivez QIANFAN-95 en temps réel avec AllMySat

Download on the App Store